GW1660 Weather Reports


time (UTC)temp
C
wind
direction
speed
KPH
gust
KPH
rain 1hr
cm
rain 24hr
cm
rain mn
cm
humidity
%
barometer
mb
20260505180833 28 214 6.4 9.7 0.00 0.00 0.00 29 1009.0
20260505180329 28 288 3.2 11.3 0.00 0.00 0.00 29 1008.8
20260505175826 28 266 3.2 12.9 0.00 0.00 0.00 31 1008.9
20260505175322 28 298 3.2 14.5 0.00 0.00 0.00 33 1008.7
20260505174819 28 255 9.7 17.7 0.00 0.00 0.00 29 1009.1
20260505174316 28 96 4.8 9.7 0.00 0.00 0.00 30 1009.0
20260505173812 27 110 4.8 11.3 0.00 0.00 0.00 32 1009.1
20260505173309 27 319 6.4 22.5 0.00 0.00 0.00 29 1009.1
20260505172806 27 275 9.7 22.5 0.00 0.00 0.00 29 1009.2
20260505172305 27 292 11.3 16.1 0.00 0.00 0.00 30 1009.3
20260505171758 27 265 4.8 20.9 0.00 0.00 0.00 31 1009.2
20260505171255 27 219 14.5 20.9 0.00 0.00 0.00 29 1009.4
20260505170751 28 328 16.1 17.7 0.00 0.00 0.00 28 1009.6
20260505170249 28 260 6.4 11.3 0.00 0.00 0.00 31 1009.5
20260505165749 27 218 6.4 9.7 0.00 0.00 0.00 31 1009.6
20260505165246 27 278 3.2 9.7 0.00 0.00 0.00 33 1009.6
20260505164741 27 225 1.6 12.9 0.00 0.00 0.00 34 1009.8
20260505164239 27 297 9.7 25.7 0.00 0.00 0.00 33 1010.0
20260505163737 27 237 9.7 14.5 0.00 0.00 0.00 33 1010.0
20260505163235 27 258 6.4 11.3 0.00 0.00 0.00 34 1010.0
20260505162732 26 9 8.0 20.9 0.00 0.00 0.00 35 1010.1
20260505162229 26 284 11.3 22.5 0.00 0.00 0.00 34 1010.0
20260505161726 26 267 3.2 24.1 0.00 0.00 0.00 35 1010.4
20260505161224 27 295 16.1 22.5 0.00 0.00 0.00 34 1010.2
20260505160721 26 293 8.0 20.9 0.00 0.00 0.00 36 1010.2
20260505160219 26 281 6.4 14.5 0.00 0.00 0.00 35 1010.3
20260505153158 26 279 9.7 12.9 0.00 0.00 0.00 36 1010.3
20260505152654 26 255 11.3 17.7 0.00 0.00 0.00 36 1010.2
20260505152150 25 279 3.2 20.9 0.00 0.00 0.00 36 1010.0
20260505151646 26 295 12.9 16.1 0.00 0.00 0.00 36 1010.1
20260505151143 26 268 6.4 9.7 0.00 0.00 0.00 36 1010.2
20260505150639 25 286 8.0 11.3 0.00 0.00 0.00 37 1010.1
20260505150137 25 228 4.8 6.4 0.00 0.00 0.00 37 1010.1
20260505140605 25 292 9.7 12.9 0.00 0.00 0.00 38 1010.4
20260505125018 21 260 1.6 4.8 0.00 0.00 0.00 48 1011.3
20260505124515 21 173 0.0 1.6 0.00 0.00 0.00 50 1011.4
20260505124011 21 188 3.2 4.8 0.00 0.00 0.00 49 1011.5
20260505123508 20 236 3.2 4.8 0.00 0.00 0.00 50 1011.3
20260505123004 20 274 0.0 6.4 0.00 0.00 0.00 51 1011.3
20260505122501 20 58 1.6 3.2 0.00 0.00 0.00 50 1011.4
20260505121958 20 253 0.0 3.2 0.00 0.00 0.00 54 1011.3
20260505121455 20 275 1.6 1.6 0.00 0.00 0.00 53 1011.4
20260505120951 19 275 0.0 0.0 0.00 0.00 0.00 55 1011.4
20260505120447 17 275 0.0 0.0 0.00 0.00 0.00 65 1011.0
20260505115946 16 275 0.0 0.0 0.00 0.00 0.00 66 1010.8
20260505115443 16 275 0.0 0.0 0.00 0.00 0.00 70 1011.0
20260505114941 15 271 0.0 1.6 0.00 0.00 0.00 72 1011.1
20260505114437 15 275 0.0 1.6 0.00 0.00 0.00 75 1011.1
20260505113934 14 275 1.6 1.6 0.00 0.00 0.00 76 1011.0
20260505113430 13 275 0.0 1.6 0.00 0.00 0.00 78 1010.9
20260505112926 13 275 0.0 1.6 0.00 0.00 0.00 78 1010.6
20260505112424 13 275 0.0 1.6 0.00 0.00 0.00 79 1010.8
20260505111920 12 275 0.0 0.0 0.00 0.00 0.00 78 1010.9
20260505111415 12 275 1.6 1.6 0.00 0.00 0.00 79 1010.6
20260505110911 12 275 0.0 0.0 0.00 0.00 0.00 79 1010.5
20260505110408 12 275 0.0 0.0 0.00 0.00 0.00 80 1010.5
20260505101839 12 275 0.0 0.0 0.00 0.00 0.00 76 1010.3
20260505101334 12 283 0.0 1.6 0.00 0.00 0.00 78 1010.2
20260505100830 12 156 0.0 0.0 0.00 0.00 0.00 76 1010.1
20260505100326 12 156 0.0 0.0 0.00 0.00 0.00 76 1010.1
20260505095822 13 156 0.0 0.0 0.00 0.00 0.00 72 1009.8
20260505095320 13 155 1.6 1.6 0.00 0.00 0.00 71 1009.8
20260505094816 13 155 1.6 1.6 0.00 0.00 0.00 71 1009.8
20260505094313 13 155 0.0 0.0 0.00 0.00 0.00 74 1010.0
20260505093808 12 155 0.0 0.0 0.00 0.00 0.00 74 1009.8
20260505093306 13 155 0.0 0.0 0.00 0.00 0.00 74 1010.0
20260505092802 13 156 0.0 0.0 0.00 0.00 0.00 73 1009.6
20260505092304 13 155 0.0 1.6 0.00 0.00 0.00 73 1009.6
20260505091758 13 156 0.0 0.0 0.00 0.00 0.00 73 1009.7
20260505091256 13 156 0.0 1.6 0.00 0.00 0.00 73 1009.7
20260505090754 13 155 0.0 0.0 0.00 0.00 0.00 72 1009.7
20260505090252 13 155 1.6 1.6 0.00 0.00 0.00 72 1009.7
20260505085749 13 155 0.0 1.6 0.00 0.00 0.00 72 1009.7
20260505085247 13 155 1.6 1.6 0.00 0.00 0.00 72 1009.8
20260505084744 13 155 0.0 3.2 0.00 0.00 0.00 72 1009.8
20260505084243 13 156 1.6 1.6 0.00 0.00 0.00 73 1009.8
20260505083739 13 155 0.0 0.0 0.00 0.00 0.00 72 1009.7
20260505083236 13 155 0.0 1.6 0.00 0.00 0.00 73 1009.7
20260505082732 13 156 0.0 0.0 0.00 0.00 0.00 72 1009.6
20260505082230 13 155 3.2 3.2 0.00 0.00 0.00 72 1009.4
20260505081725 13 155 1.6 1.6 0.00 0.00 0.00 72 1009.4
20260505081223 13 155 0.0 0.0 0.00 0.00 0.00 72 1009.4
20260505080720 14 156 0.0 0.0 0.00 0.00 0.00 71 1009.6
20260505080215 14 155 1.6 1.6 0.00 0.00 0.00 70 1009.6
20260505075711 13 155 0.0 1.6 0.00 0.00 0.00 71 1009.5
20260505075209 13 156 0.0 0.0 0.00 0.00 0.00 72 1009.4
20260505074706 13 156 0.0 0.0 0.00 0.00 0.00 72 1009.6
20260505074203 13 156 0.0 0.0 0.00 0.00 0.00 70 1009.4
20260505073700 14 156 1.6 1.6 0.00 0.00 0.00 69 1009.4
20260505073158 14 156 0.0 0.0 0.00 0.00 0.00 68 1009.1
20260505072654 14 156 0.0 1.6 0.00 0.00 0.00 68 1009.2
20260505072151 14 156 0.0 0.0 0.00 0.00 0.00 69 1009.5
20260505071646 14 156 0.0 0.0 0.00 0.00 0.00 69 1009.3
20260505071144 14 156 0.0 0.0 0.00 0.00 0.00 68 1009.2
20260505070641 15 156 0.0 0.0 0.00 0.00 0.00 68 1009.3
20260505070137 15 156 0.0 0.0 0.00 0.00 0.00 66 1009.3
20260505065633 15 156 0.0 0.0 0.00 0.00 0.00 67 1009.3
20260505065130 15 156 0.0 0.0 0.00 0.00 0.00 67 1009.6
20260505064627 15 156 1.6 1.6 0.00 0.00 0.00 66 1009.4
20260505064125 15 156 1.6 1.6 0.00 0.00 0.00 65 1009.3
20260505063622 15 156 0.0 1.6 0.00 0.00 0.00 63 1009.7
20260505063118 15 156 1.6 1.6 0.00 0.00 0.00 63 1009.6
20260505062615 15 156 0.0 0.0 0.00 0.00 0.00 64 1009.8
20260505062112 15 156 0.0 0.0 0.00 0.00 0.00 65 1009.8
20260505061609 15 156 0.0 0.0 0.00 0.00 0.00 63 1009.7
20260505061108 15 156 0.0 0.0 0.00 0.00 0.00 63 1009.8
20260505060605 15 156 0.0 0.0 0.00 0.00 0.00 62 1009.7
20260505055556 15 156 1.6 1.6 0.00 0.00 0.00 64 1009.7
20260505055053 16 156 0.0 0.0 0.00 0.00 0.00 63 1009.8
20260505054550 16 156 0.0 0.0 0.00 0.00 0.00 60 1009.8
20260505054049 16 156 0.0 1.6 0.00 0.00 0.00 58 1009.8
20260505053545 16 156 1.6 1.6 0.00 0.00 0.00 55 1009.7
20260505053042 16 156 0.0 1.6 0.00 0.00 0.00 55 1009.6
20260505052539 16 156 1.6 1.6 0.00 0.00 0.00 55 1009.8
20260505052037 16 156 1.6 3.2 0.00 0.00 0.00 56 1009.6
20260505051533 16 156 1.6 3.2 0.00 0.00 0.00 56 1009.5
20260505051031 15 156 1.6 4.8 0.00 0.00 0.00 58 1009.6
20260505050529 15 146 3.2 4.8 0.00 0.00 0.00 60 1009.6
20260505041457 14 166 0.0 1.6 0.00 0.00 0.00 60 1009.6
20260505040954 14 166 0.0 0.0 0.00 0.00 0.00 61 1009.5
20260505040452 15 166 0.0 0.0 0.00 0.00 0.00 62 1009.6
20260505035948 15 166 0.0 0.0 0.00 0.00 0.00 60 1009.8
20260505035444 15 166 0.0 0.0 0.00 0.00 0.00 59 1009.7
20260505034942 15 166 0.0 0.0 0.00 0.00 0.00 59 1009.8
20260505034438 15 166 0.0 0.0 0.00 0.00 0.00 57 1009.3
20260505033935 15 166 0.0 0.0 0.00 0.00 0.00 57 1009.3
20260505033432 16 166 0.0 0.0 0.00 0.00 0.00 56 1009.3
20260505032930 16 166 0.0 0.0 0.00 0.00 0.00 55 1009.4
20260505032427 16 166 0.0 1.6 0.00 0.00 0.00 52 1009.3
20260505031923 16 166 1.6 1.6 0.00 0.00 0.00 51 1009.4
20260505031420 16 166 1.6 1.6 0.00 0.00 0.00 51 1009.4
20260505030917 17 166 0.0 1.6 0.00 0.00 0.00 50 1009.2
20260505030413 17 176 1.6 3.2 0.00 0.00 0.00 50 1009.0
20260505025909 17 119 4.8 4.8 0.00 0.00 0.00 50 1009.1
20260505025406 17 198 3.2 4.8 0.00 0.00 0.00 50 1009.2
20260505024905 17 111 3.2 4.8 0.00 0.00 0.00 50 1009.3
20260505024402 17 158 1.6 4.8 0.00 0.00 0.00 50 1009.3
20260505023859 17 185 4.8 6.4 0.00 0.00 0.00 50 1009.6
20260505023356 17 137 4.8 6.4 0.00 0.00 0.00 50 1009.5
20260505022853 16 146 4.8 6.4 0.00 0.00 0.00 50 1009.6
20260505022350 16 130 4.8 6.4 0.00 0.00 0.00 51 1009.5
20260505021848 15 151 0.0 0.0 0.00 0.00 0.00 55 1009.6
20260505021344 16 151 0.0 0.0 0.00 0.00 0.00 55 1009.4
20260505020840 16 150 0.0 0.0 0.00 0.00 0.00 54 1009.4
20260505020335 16 150 0.0 0.0 0.00 0.00 0.00 53 1009.4
20260505015832 16 150 0.0 0.0 0.00 0.00 0.00 52 1009.4
20260505015330 16 150 0.0 0.0 0.00 0.00 0.00 51 1009.3
20260505014827 17 150 0.0 0.0 0.00 0.00 0.00 51 1009.3
20260505014324 17 150 0.0 1.6 0.00 0.00 0.00 50 1009.5
20260505013820 17 150 0.0 0.0 0.00 0.00 0.00 49 1009.4
20260505013318 18 150 0.0 0.0 0.00 0.00 0.00 47 1009.6
20260505012816 18 150 1.6 1.6 0.00 0.00 0.00 45 1009.6
20260505012313 18 125 1.6 1.6 0.00 0.00 0.00 45 1009.3
20260505011809 18 126 0.0 1.6 0.00 0.00 0.00 45 1009.3
20260505011306 18 142 0.0 1.6 0.00 0.00 0.00 45 1009.5
20260505010802 18 130 3.2 3.2 0.00 0.00 0.00 44 1009.3
20260505010258 18 156 1.6 4.8 0.00 0.00 0.00 44 1009.2
20260505005754 18 121 3.2 4.8 0.00 0.00 0.00 44 1009.0
20260505005252 18 159 1.6 4.8 0.00 0.00 0.00 44 1008.9
20260505004749 18 129 4.8 11.3 0.00 0.00 0.00 44 1009.0
20260505004245 18 137 3.2 4.8 0.00 0.00 0.00 44 1009.0
20260505003742 18 149 4.8 6.4 0.00 0.00 0.00 44 1008.8
20260505003240 18 172 3.2 4.8 0.00 0.00 0.00 43 1009.0
20260505002736 18 108 3.2 4.8 0.00 0.00 0.00 43 1008.9
20260505002234 19 165 6.4 6.4 0.00 0.00 0.00 43 1008.8
20260505001731 19 164 3.2 4.8 0.00 0.00 0.00 43 1008.9
20260505001229 19 164 3.2 4.8 0.00 0.00 0.00 42 1008.7
20260505000725 20 211 3.2 4.8 0.00 0.00 0.00 42 1008.8
20260505000223 20 152 3.2 6.4 0.00 0.00 0.00 42 1008.7
20260504235719 20 120 4.8 4.8 0.00 0.00 0.00 41 1008.7
20260504235215 20 159 3.2 12.9 0.00 0.00 0.00 41 1008.7
20260504234713 20 185 3.2 6.4 0.00 0.00 0.00 41 1008.6
20260504234210 20 150 4.8 6.4 0.00 0.00 0.00 40 1008.4
20260504233706 20 144 9.7 12.9 0.00 0.00 0.00 40 1008.6
20260504233202 20 140 3.2 9.7 0.00 0.00 0.00 40 1008.5
20260504232700 21 178 4.8 11.3 0.00 0.00 0.00 39 1008.4
20260504232156 21 210 8.0 11.3 0.00 0.00 0.00 39 1008.6
20260504231653 21 90 8.0 12.9 0.00 0.00 0.00 38 1008.4
20260504231150 22 167 1.6 4.8 0.00 0.00 0.00 35 1008.5
20260504230646 23 207 3.2 6.4 0.00 0.00 0.00 34 1008.4
20260504230145 23 157 1.6 1.6 0.00 0.00 0.00 33 1008.3
20260504225643 23 97 1.6 3.2 0.00 0.00 0.00 32 1008.3
20260504225138 23 263 1.6 9.7 0.00 0.00 0.00 32 1008.5
20260504224635 23 171 0.0 3.2 0.00 0.00 0.00 33 1008.5
20260504224132 23 95 0.0 1.6 0.00 0.00 0.00 33 1008.5
20260504223629 23 269 1.6 4.8 0.00 0.00 0.00 33 1008.5
20260504223125 23 134 1.6 4.8 0.00 0.00 0.00 33 1008.6
20260504222622 23 175 3.2 6.4 0.00 0.00 0.00 33 1008.4
20260504222119 24 275 4.8 6.4 0.00 0.00 0.00 32 1008.6
20260504221616 24 120 0.0 3.2 0.00 0.00 0.00 32 1008.5
20260504221114 23 297 3.2 6.4 0.00 0.00 0.00 33 1008.6
20260504220610 23 224 3.2 9.7 0.00 0.00 0.00 32 1008.6
20260504220108 23 197 1.6 11.3 0.00 0.00 0.00 31 1008.5
20260504215603 23 209 3.2 9.7 0.00 0.00 0.00 31 1008.6
20260504215101 23 194 3.2 9.7 0.00 0.00 0.00 31 1008.5
20260504214557 23 194 0.0 3.2 0.00 0.00 0.00 31 1008.5
20260504214053 24 216 3.2 6.4 0.00 0.00 0.00 30 1008.7
20260504213550 25 193 3.2 4.8 0.00 0.00 0.00 31 1008.7
20260504213047 25 290 1.6 4.8 0.00 0.00 0.00 30 1008.6
20260504212543 25 236 1.6 4.8 0.00 0.00 0.00 30 1008.6
20260504212040 25 174 1.6 9.7 0.00 0.00 0.00 30 1008.6
20260504211537 25 212 3.2 6.4 0.00 0.00 0.00 30 1008.6
20260504211034 25 305 1.6 9.7 0.00 0.00 0.00 30 1008.6
20260504210531 24 309 1.6 6.4 0.00 0.00 0.00 30 1008.6
20260504210028 24 250 3.2 11.3 0.00 0.00 0.00 31 1008.6
20260504205526 24 90 6.4 12.9 0.00 0.00 0.00 30 1008.6
20260504205023 25 257 8.0 14.5 0.00 0.00 0.00 30 1008.7
20260504204521 25 197 1.6 3.2 0.00 0.00 0.00 30 1008.5
20260504204020 25 214 3.2 9.7 0.00 0.00 0.00 28 1008.5
20260504203518 24 287 3.2 11.3 0.00 0.00 0.00 31 1008.8
20260504203015 24 297 4.8 12.9 0.00 0.00 0.00 29 1008.7
20260504202510 24 225 4.8 9.7 0.00 0.00 0.00 29 1008.9
20260504202002 24 282 4.8 9.7 0.00 0.00 0.00 30 1008.7
20260504201459 24 301 4.8 12.9 0.00 0.00 0.00 29 1008.9
20260504200956 23 284 3.2 6.4 0.00 0.00 0.00 31 1009.1
20260504200453 24 298 9.7 12.9 0.00 0.00 0.00 30 1009.0
20260504195949 24 291 4.8 4.8 0.00 0.00 0.00 30 1009.3
20260504195445 24 151 3.2 12.9 0.00 0.00 0.00 30 1009.4
20260504194942 24 274 3.2 9.7 0.00 0.00 0.00 31 1009.5
20260504194438 23 214 3.2 4.8 0.00 0.00 0.00 30 1009.5
20260504193934 23 278 14.5 17.7 0.00 0.00 0.00 31 1009.6
20260504193432 23 238 3.2 11.3 0.00 0.00 0.00 31 1009.7
20260504192930 23 291 8.0 11.3 0.00 0.00 0.00 30 1009.8
20260504192427 23 289 6.4 12.9 0.00 0.00 0.00 31 1009.8
20260504191926 23 172 1.6 3.2 0.00 0.00 0.00 30 1010.0
20260504191424 23 285 3.2 6.4 0.00 0.00 0.00 31 1010.2
20260504190919 23 133 3.2 12.9 0.00 0.00 0.00 32 1010.1
20260504190415 23 156 4.8 11.3 0.00 0.00 0.00 29 1010.3
20260504185912 23 204 3.2 4.8 0.00 0.00 0.00 29 1010.3
20260504185409 23 207 6.4 12.9 0.00 0.00 0.00 31 1010.4
20260504184904 22 274 4.8 9.7 0.00 0.00 0.00 32 1010.4
20260504184401 23 280 6.4 11.3 0.00 0.00 0.00 30 1010.3
20260504183857 23 235 9.7 17.7 0.00 0.00 0.00 31 1010.4
20260504183354 23 289 6.4 11.3 0.00 0.00 0.00 30 1010.6
20260504182851 23 253 6.4 9.7 0.00 0.00 0.00 31 1010.7
20260504182349 23 266 4.8 9.7 0.00 0.00 0.00 30 1010.8
20260504181845 23 275 3.2 6.4 0.00 0.00 0.00 32 1010.7
20260504181343 23 250 3.2 9.7 0.00 0.00 0.00 31 1010.7